Lafayette Regional Airport
KLFT : now visible

Airfield :











YOU CAN JOIN US ON...

 
LOGIN :

Register | Disclaimer

   EN    FR    IT 

 









Legend :    VFR   Marginal VFR   IFR   Intensive IFR   Very Intensive IFR
Visi :
Ceiling :
>= 8 km
>= 3000ft
5 to 8 km
1000 to 3000 ft
1500m to 5 km
500 to 1000 ft
800 to 1500m
200 to 500 ft
< 800m
< 200 ft
Symbols :   Thunderstorms  Fog  Heavy snow  Heavy precipitations  Wind > 20 kt







- Airport Elevation : 42 ft
- IATA code : LFT


KLFT - Lafayette Regional

CURRENT METAR :
  • 201553Z VRB06KT 10SM SCT022 29/23 A3010 RMK AO2 SLP192 T02890233

EXPIRED METARs :
  • 201453Z VRB04KT 10SM CLR 28/23 A3009 RMK AO2 SLP188 T02780233 51017
  • 201353Z VRB04KT 10SM CLR 27/24 A3007 RMK AO2 SLP183 T02670239

TAF KLFT
Valid from the 20 at 12:00 until the 21 at 12:00 UTC


201135Z 2012/2112 11003KT P6SM VCSH FEW025 BKN200
FM201500 13006KT P6SM VCTS SCT025CB BKN180
FM210100 VRB03KT P6SM FEW035 SCT150
No reported NOTAMs for that airfield.



MET'MAP, your aeronautical weather chart ! - Copyright ORBIFLY December 2007 - Disclaimer

ORBIFLY MET'MAP TEAM :

Programming & Development : Alexandra Zaïnal
Concept & Development : Baudouin d'Aumeries
Co-Development & Prog : Marc-Olivier Méhu
Technical & hardware support : Manuel Goepfert

Contact : metmap@orbifly.com




SOURCES & CREDITS :

   NOAA       Earth
Advisory